,,Stat5,,Stat1,,Stat2,,Stat3,,Stat4,,Wind1,,Wind1,
time,status,PA1M_AVG,status,PR1M_SUM,status,RH1M_AVG,status,SR1M_AVG,status,TA1M_AVG,status,W1dAve1m,status,W1sAve1m,
2001-05-12, 00:00:00,VALID,919.133,VALID,0,VALID,96.4639,VALID,-0.0169808,VALID,20.902,VALID,81,VALID,0,
2001-05-12, 00:01:00,VALID,919.158,VALID,0,VALID,96.3825,VALID,-0.0339617,VALID,20.9084,VALID,81,VALID,0,
2001-05-12, 00:02:00,VALID,919.164,VALID,0,VALID,96.4741,VALID,-0.0509425,VALID,20.9084,VALID,81,VALID,0,
2001-05-12, 00:03:00,VALID,919.169,VALID,0,VALID,96.5326,VALID,-0.0849042,VALID,20.9345,VALID,84,VALID,0,
2001-05-12, 00:04:00,VALID,919.146,VALID,0,VALID,96.4296,VALID,-0.0679233,VALID,20.9375,VALID,91,VALID,0,
2001-05-12, 00:05:00,VALID,919.125,VALID,0,VALID,96.4118,VALID,-0.0509425,VALID,20.9472,VALID,95,VALID,0,
2001-05-12, 00:06:00,VALID,919.11,VALID,0,VALID,96.3838,VALID,0,VALID,20.9668,VALID,98,VALID,0,
2001-05-12, 00:07:00,VALID,919.084,VALID,0,VALID,96.1931,VALID,-0.0509425,VALID,20.986,VALID,98,VALID,0,
2001-05-12, 00:08:00,VALID,919.061,VALID,0,VALID,96.1486,VALID,-0.0339617,VALID,20.993,VALID,101,VALID,0,
2001-05-12, 00:09:00,VALID,919.042,VALID,0,VALID,96.085,VALID,-0.0679233,VALID,20.9927,VALID,176,VALID,0,
2001-05-12, 00:10:00,VALID,919.004,VALID,0,VALID,95.9947,VALID,-0.101885,VALID,20.9833,VALID,204,VALID,0,
2001-05-12, 00:11:00,VALID,918.976,VALID,0,VALID,95.982,VALID,-0.0339617,VALID,20.9862,VALID,204,VALID,0,
2001-05-12, 00:12:00,VALID,918.953,VALID,0,VALID,95.9782,VALID,-0.0849042,VALID,20.98,VALID,206,VALID,0,
2001-05-12, 00:13:00,VALID,918.931,VALID,0,VALID,95.9146,VALID,-0.0169808,VALID,20.9763,VALID,206,VALID,0,
2001-05-12, 00:14:00,VALID,918.903,VALID,0,VALID,95.9159,VALID,-0.0169808,VALID,20.966,VALID,206,VALID,0,
2001-05-12, 00:15:00,VALID,918.857,VALID,0,VALID,95.9159,VALID,-0.0339617,VALID,20.9795,VALID,206,VALID,0,
2001-05-12, 00:16:00,VALID,918.819,VALID,0,VALID,95.9031,VALID,-0.0679233,VALID,20.9927,VALID,206,VALID,0,
2001-05-12, 00:17:00,VALID,918.789,VALID,0,VALID,95.8904,VALID,-0.0339617,VALID,20.9924,VALID,206,VALID,0,
2001-05-12, 00:18:00,VALID,918.753,VALID,0,VALID,95.9591,VALID,-0.0679233,VALID,20.9959,VALID,206,VALID,0,
2001-05-12, 00:19:00,VALID,918.727,VALID,0,VALID,95.9642,VALID,-0.0509425,VALID,21.0253,VALID,197,VALID,0,
2001-05-12, 00:20:00,VALID,918.687,VALID,0,VALID,95.7213,VALID,-0.0679233,VALID,21.0086,VALID,140,VALID,0,
2001-05-12, 00:21:00,VALID,918.659,VALID,0,VALID,95.7188,VALID,-0.0339617,VALID,21.0185,VALID,123,VALID,0,
2001-05-12, 00:22:00,VALID,918.622,VALID,0,VALID,95.7607,VALID,-0.0339617,VALID,21.0242,VALID,117,VALID,0,
2001-05-12, 00:23:00,VALID,918.592,VALID,0,VALID,95.6819,VALID,-0.0169808,VALID,21.0309,VALID,105,VALID,0,
2001-05-12, 00:24:00,VALID,918.534,VALID,0,VALID,95.6603,VALID,-0.0509425,VALID,21.0218,VALID,102,VALID,0,
2001-05-12, 00:25:00,VALID,918.48,VALID,0,VALID,95.6374,VALID,-0.0849042,VALID,20.9992,VALID,98,VALID,0,
2001-05-12, 00:26:00,VALID,918.408,VALID,0,VALID,95.7773,VALID,-0.0169808,VALID,20.973,VALID,97,VALID,0,
2001-05-12, 00:27:00,VALID,918.369,VALID,0,VALID,95.8001,VALID,-0.0169808,VALID,20.9434,VALID,90,VALID,0,
2001-05-12, 00:28:00,VALID,918.313,VALID,0,VALID,95.7442,VALID,-0.0679233,VALID,20.8985,VALID,85,VALID,0,
2001-05-12, 00:29:00,VALID,918.282,VALID,0,VALID,95.8981,VALID,-0.0339617,VALID,20.8567,VALID,83,VALID,0,
2001-05-12, 00:30:00,VALID,918.246,VALID,0,VALID,96.099,VALID,-0.0339617,VALID,20.8309,VALID,80,VALID,0,
2001-05-12, 00:31:00,VALID,918.232,VALID,0,VALID,96.2783,VALID,-0.0849042,VALID,20.8083,VALID,55,VALID,0,
2001-05-12, 00:32:00,VALID,918.216,VALID,0,VALID,96.3965,VALID,-0.0509425,VALID,20.7916,VALID,42,VALID,0,
2001-05-12, 00:33:00,VALID,918.208,VALID,0,VALID,96.455,VALID,-0.0339617,VALID,20.8018,VALID,29,VALID,0,
2001-05-12, 00:34:00,VALID,918.189,VALID,0,VALID,96.4347,VALID,-0.0509425,VALID,20.8021,VALID,50,VALID,0,
2001-05-12, 00:35:00,VALID,918.157,VALID,0,VALID,96.4614,VALID,-0.0339617,VALID,20.805,VALID,45,VALID,0,
2001-05-12, 00:36:00,VALID,918.148,VALID,0,VALID,96.53,VALID,-0.0339617,VALID,20.8115,VALID,19,VALID,0,
2001-05-12, 00:37:00,VALID,918.131,VALID,0,VALID,96.628,VALID,-0.0339617,VALID,20.8212,VALID,358,VALID,0,
2001-05-12, 00:38:00,VALID,918.125,VALID,0,VALID,96.6636,VALID,-0.0169808,VALID,20.8271,VALID,298,VALID,0,
2001-05-12, 00:39:00,VALID,918.094,VALID,0,VALID,96.6763,VALID,-0.0339617,VALID,20.8373,VALID,265,VALID,0,
2001-05-12, 00:40:00,VALID,918.06,VALID,0,VALID,96.7246,VALID,-0.0339617,VALID,20.8172,VALID,249,VALID,0,
2001-05-12, 00:41:00,VALID,918.01,VALID,0,VALID,96.7742,VALID,-0.0339617,VALID,20.8147,VALID,246,VALID,0,
2001-05-12, 00:42:00,VALID,917.98,VALID,0,VALID,96.8721,VALID,-0.0509425,VALID,20.801,VALID,338,VALID,0,
2001-05-12, 00:43:00,VALID,917.943,VALID,0,VALID,97.0412,VALID,-0.0509425,VALID,20.8306,VALID,77,VALID,0,
2001-05-12, 00:44:00,VALID,917.92,VALID,0,VALID,97.059,VALID,-0.0339617,VALID,20.8376,VALID,109,VALID,0,
2001-05-12, 00:45:00,VALID,917.904,VALID,0,VALID,97.1023,VALID,-0.0339617,VALID,20.8438,VALID,93,VALID,0,
2001-05-12, 00:46:00,VALID,917.906,VALID,0,VALID,97.1048,VALID,-0.0509425,VALID,20.8532,VALID,96,VALID,0,
2001-05-12, 00:47:00,VALID,917.891,VALID,0,VALID,97.101,VALID,-0.0509425,VALID,20.8667,VALID,111,VALID,0,
2001-05-12, 00:48:00,VALID,917.891,VALID,0,VALID,97.0654,VALID,-0.0339617,VALID,20.85,VALID,107,VALID,0,
2001-05-12, 00:49:00,VALID,917.888,VALID,0,VALID,97.0896,VALID,-0.0339617,VALID,20.85,VALID,98,VALID,0,
2001-05-12, 00:50:00,VALID,917.887,VALID,0,VALID,97.1442,VALID,-0.0339617,VALID,20.8667,VALID,102,VALID,0,
2001-05-12, 00:51:00,VALID,917.878,VALID,0,VALID,97.1671,VALID,-0.0339617,VALID,20.8828,VALID,100,VALID,0,
2001-05-12, 00:52:00,VALID,917.876,VALID,0,VALID,97.1201,VALID,-0.0679233,VALID,20.8662,VALID,88,VALID,0,
2001-05-12, 00:53:00,VALID,917.888,VALID,0,VALID,97.059,VALID,-0.0509425,VALID,20.8667,VALID,84,VALID,0,
2001-05-12, 00:54:00,VALID,917.889,VALID,0,VALID,96.8937,VALID,-0.0169808,VALID,20.8535,VALID,71,VALID,0,
2001-05-12, 00:55:00,VALID,917.886,VALID,0,VALID,96.8009,VALID,0,VALID,20.8371,VALID,43,VALID,0,
2001-05-12, 00:56:00,VALID,917.878,VALID,0,VALID,96.8263,VALID,0,VALID,20.84,VALID,59,VALID,0,
2001-05-12, 00:57:00,VALID,917.877,VALID,0,VALID,96.717,VALID,0,VALID,20.8269,VALID,55,VALID,0,
2001-05-12, 00:58:00,VALID,917.868,VALID,0,VALID,96.7805,VALID,-0.0169808,VALID,20.8338,VALID,53,VALID,0,
2001-05-12, 00:59:00,VALID,917.858,VALID,0,VALID,96.8429,VALID,0,VALID,20.843,VALID,41,VALID,0,
2001-05-12, 01:00:00,VALID,917.838,VALID,0,VALID,96.8174,VALID,0,VALID,20.8465,VALID,314,VALID,0,
2001-05-12, 01:01:00,VALID,917.815,VALID,0,VALID,96.839,VALID,0,VALID,20.8433,VALID,314,VALID,0,
2001-05-12, 01:02:00,VALID,917.804,VALID,0,VALID,96.9319,VALID,0,VALID,20.8303,VALID,314,VALID,0,
2001-05-12, 01:03:00,VALID,917.77,VALID,0,VALID,97.012,VALID,0,VALID,20.8303,VALID,314,VALID,0,
2001-05-12, 01:04:00,VALID,917.744,VALID,0,VALID,97.0527,VALID,0,VALID,20.8303,VALID,314,VALID,0,
2001-05-12, 01:05:00,VALID,917.709,VALID,0,VALID,97.087,VALID,0,VALID,20.8368,VALID,314,VALID,0,
2001-05-12, 01:06:00,VALID,917.664,VALID,0,VALID,97.1824,VALID,0,VALID,20.8505,VALID,322,VALID,0,
2001-05-12, 01:07:00,VALID,917.634,VALID,0,VALID,97.2485,VALID,0,VALID,20.8565,VALID,88,VALID,0,
2001-05-12, 01:08:00,VALID,917.593,VALID,0,VALID,97.2421,VALID,0,VALID,20.8592,VALID,100,VALID,0,
2001-05-12, 01:09:00,VALID,917.558,VALID,0,VALID,97.1735,VALID,0,VALID,20.8662,VALID,95,VALID,0,
2001-05-12, 01:10:00,VALID,917.538,VALID,0,VALID,97.0743,VALID,-0.0169808,VALID,20.8298,VALID,88,VALID,0,
2001-05-12, 01:11:00,VALID,917.495,VALID,0,VALID,97.1048,VALID,-0.0169808,VALID,20.7841,VALID,84,VALID,0,
2001-05-12, 01:12:00,VALID,917.474,VALID,0,VALID,97.1926,VALID,-0.0169808,VALID,20.7821,VALID,96,VALID,0,
2001-05-12, 01:13:00,VALID,917.454,VALID,0,VALID,97.3019,VALID,0.0169808,VALID,20.7722,VALID,100,VALID,0,
2001-05-12, 01:14:00,VALID,917.445,VALID,0,VALID,97.382,VALID,0,VALID,20.7819,VALID,105,VALID,0,
2001-05-12, 01:15:00,VALID,917.417,VALID,0,VALID,97.3782,VALID,0.0169808,VALID,20.798,VALID,102,VALID,0,
2001-05-12, 01:16:00,VALID,917.421,VALID,0,VALID,97.3782,VALID,0.0169808,VALID,20.7983,VALID,105,VALID,0,
2001-05-12, 01:17:00,VALID,917.432,VALID,0,VALID,97.3808,VALID,0.0169808,VALID,20.8112,VALID,105,VALID,0,
2001-05-12, 01:18:00,VALID,917.429,VALID,0,VALID,97.3362,VALID,0.0169808,VALID,20.8242,VALID,108,VALID,0,
2001-05-12, 01:19:00,VALID,917.436,VALID,0,VALID,97.3083,VALID,0,VALID,20.8204,VALID,108,VALID,0,
2001-05-12, 01:20:00,VALID,917.453,VALID,0,VALID,97.2485,VALID,0,VALID,20.8368,VALID,106,VALID,0,
2001-05-12, 01:21:00,VALID,917.477,VALID,0,VALID,97.1913,VALID,0,VALID,20.8341,VALID,96,VALID,0,
2001-05-12, 01:22:00,VALID,917.488,VALID,0,VALID,97.1404,VALID,0.0169808,VALID,20.8045,VALID,94,VALID,0,
2001-05-12, 01:23:00,VALID,917.502,VALID,0,VALID,97.204,VALID,0,VALID,20.7881,VALID,94,VALID,0,
2001-05-12, 01:24:00,VALID,917.528,VALID,0,VALID,97.2892,VALID,0,VALID,20.7854,VALID,99,VALID,0,
2001-05-12, 01:25:00,VALID,917.527,VALID,0,VALID,97.3947,VALID,-0.0169808,VALID,20.8048,VALID,87,VALID,0,
2001-05-12, 01:26:00,VALID,917.551,VALID,0,VALID,97.4151,VALID,0,VALID,20.7945,VALID,96,VALID,0,
2001-05-12, 01:27:00,VALID,917.581,VALID,0,VALID,97.457,VALID,0,VALID,20.7916,VALID,103,VALID,0,
2001-05-12, 01:28:00,VALID,917.603,VALID,0,VALID,97.4723,VALID,-0.0339617,VALID,20.8147,VALID,104,VALID,0,
2001-05-12, 01:29:00,VALID,917.624,VALID,0,VALID,97.4532,VALID,0,VALID,20.7878,VALID,103,VALID,0,
2001-05-12, 01:30:00,VALID,917.654,VALID,0,VALID,97.4787,VALID,0,VALID,20.7881,VALID,105,VALID,0,
2001-05-12, 01:31:00,VALID,917.702,VALID,0,VALID,97.4532,VALID,0,VALID,20.7943,VALID,93,VALID,0,
2001-05-12, 01:32:00,VALID,917.714,VALID,0,VALID,97.4125,VALID,0.0169808,VALID,20.7878,VALID,96,VALID,0,
2001-05-12, 01:33:00,VALID,917.731,VALID,0,VALID,97.4113,VALID,0.0169808,VALID,20.7851,VALID,109,VALID,0,
2001-05-12, 01:34:00,VALID,917.729,VALID,0,VALID,97.4418,VALID,0.0169808,VALID,20.7943,VALID,105,VALID,0,
2001-05-12, 01:35:00,VALID,917.734,VALID,0,VALID,97.424,VALID,0.0169808,VALID,20.794,VALID,105,VALID,0,
2001-05-12, 01:36:00,VALID,917.732,VALID,0,VALID,97.3935,VALID,0,VALID,20.811,VALID,103,VALID,0,
2001-05-12, 01:37:00,VALID,917.717,VALID,0,VALID,97.3528,VALID,-0.0169808,VALID,20.8209,VALID,107,VALID,0,
2001-05-12, 01:38:00,VALID,917.723,VALID,0,VALID,97.2307,VALID,0,VALID,20.8142,VALID,101,VALID,0,
2001-05-12, 01:39:00,VALID,917.717,VALID,0,VALID,97.176,VALID,0,VALID,20.8207,VALID,97,VALID,0,
2001-05-12, 01:40:00,VALID,917.725,VALID,0,VALID,97.1264,VALID,0,VALID,20.8045,VALID,99,VALID,0,
2001-05-12, 01:41:00,VALID,917.713,VALID,0,VALID,97.1671,VALID,-0.0169808,VALID,20.811,VALID,101,VALID,0,
2001-05-12, 01:42:00,VALID,917.722,VALID,0,VALID,97.1875,VALID,0,VALID,20.8276,VALID,105,VALID,0,
2001-05-12, 01:43:00,VALID,917.712,VALID,0,VALID,97.1468,VALID,0,VALID,20.8075,VALID,98,VALID,0,
2001-05-12, 01:44:00,VALID,917.701,VALID,0,VALID,97.1264,VALID,0,VALID,20.7978,VALID,85,VALID,0,
2001-05-12, 01:45:00,VALID,917.687,VALID,0,VALID,97.0934,VALID,0,VALID,20.7792,VALID,91,VALID,0,
2001-05-12, 01:46:00,VALID,917.657,VALID,0,VALID,97.0107,VALID,0,VALID,20.7463,VALID,69,VALID,0,
2001-05-12, 01:47:00,VALID,917.641,VALID,0,VALID,97.0425,VALID,0,VALID,20.7105,VALID,102,VALID,0,
2001-05-12, 01:48:00,VALID,917.636,VALID,0,VALID,97.2142,VALID,0,VALID,20.7369,VALID,103,VALID,0,
2001-05-12, 01:49:00,VALID,917.643,VALID,0,VALID,97.3388,VALID,0,VALID,20.7568,VALID,100,VALID,0,
2001-05-12, 01:50:00,VALID,917.644,VALID,0,VALID,97.3324,VALID,-0.0169808,VALID,20.7401,VALID,84,VALID,0,
2001-05-12, 01:51:00,VALID,917.677,VALID,0,VALID,97.204,VALID,0.0169808,VALID,20.7049,VALID,79,VALID,0,
2001-05-12, 01:52:00,VALID,917.7,VALID,0,VALID,97.4062,VALID,-0.0169808,VALID,20.7076,VALID,95,VALID,0,
2001-05-12, 01:53:00,VALID,917.726,VALID,0,VALID,97.5499,VALID,0,VALID,20.7272,VALID,96,VALID,0,
2001-05-12, 01:54:00,VALID,917.744,VALID,0,VALID,97.5092,VALID,0,VALID,20.7312,VALID,76,VALID,0,
2001-05-12, 01:55:00,VALID,917.749,VALID,0,VALID,97.3566,VALID,-0.0169808,VALID,20.6815,VALID,2,VALID,0,
2001-05-12, 01:56:00,VALID,917.74,VALID,0,VALID,97.3757,VALID,0,VALID,20.6954,VALID,360,VALID,0,
2001-05-12, 01:57:00,VALID,917.736,VALID,0,VALID,97.5461,VALID,-0.0169808,VALID,20.6952,VALID,357,VALID,0,
2001-05-12, 01:58:00,VALID,917.717,VALID,0,VALID,97.5473,VALID,-0.0169808,VALID,20.6984,VALID,316,VALID,0,
2001-05-12, 01:59:00,VALID,917.717,VALID,0,VALID,97.5562,VALID,-0.0169808,VALID,20.6987,VALID,322,VALID,0,
2001-05-12, 02:00:00,VALID,917.703,VALID,0,VALID,97.6681,VALID,0,VALID,20.7084,VALID,26,VALID,0,
2001-05-12, 02:01:00,VALID,917.69,VALID,0,VALID,97.7444,VALID,0,VALID,20.7213,VALID,21,VALID,0,
2001-05-12, 02:02:00,VALID,917.691,VALID,0,VALID,97.8118,VALID,-0.0169808,VALID,20.7312,VALID,19,VALID,0,
2001-05-12, 02:03:00,VALID,917.684,VALID,0,VALID,97.8029,VALID,-0.0339617,VALID,20.7277,VALID,81,VALID,0,
2001-05-12, 02:04:00,VALID,917.667,VALID,0,VALID,97.8779,VALID,-0.0169808,VALID,20.7444,VALID,102,VALID,0,
2001-05-12, 02:05:00,VALID,917.657,VALID,0,VALID,97.9314,VALID,-0.0509425,VALID,20.7407,VALID,102,VALID,0,
2001-05-12, 02:06:00,VALID,917.648,VALID,0,VALID,97.9657,VALID,-0.0339617,VALID,20.7474,VALID,93,VALID,0,
2001-05-12, 02:07:00,VALID,917.627,VALID,0,VALID,97.8233,VALID,-0.0169808,VALID,20.6987,VALID,55,VALID,0,
2001-05-12, 02:08:00,VALID,917.621,VALID,0,VALID,97.7927,VALID,-0.0169808,VALID,20.6795,VALID,100,VALID,0,
2001-05-12, 02:09:00,VALID,917.646,VALID,0.2,VALID,97.8601,VALID,0,VALID,20.6825,VALID,97,VALID,0,
2001-05-12, 02:10:00,VALID,917.639,VALID,0,VALID,97.8118,VALID,-0.0679233,VALID,20.6666,VALID,56,VALID,0,
2001-05-12, 02:11:00,VALID,917.649,VALID,0,VALID,97.7266,VALID,-0.0509425,VALID,20.6246,VALID,80,VALID,0,
2001-05-12, 02:12:00,VALID,917.66,VALID,0,VALID,97.8284,VALID,0,VALID,20.6373,VALID,93,VALID,0,
2001-05-12, 02:13:00,VALID,917.66,VALID,0,VALID,97.8576,VALID,-0.0169808,VALID,20.6405,VALID,89,VALID,0,
2001-05-12, 02:14:00,VALID,917.676,VALID,0,VALID,97.8042,VALID,-0.0169808,VALID,20.602,VALID,84,VALID,0,
2001-05-12, 02:15:00,VALID,917.682,VALID,0.2,VALID,97.8385,VALID,-0.0169808,VALID,20.5985,VALID,85,VALID,0,
2001-05-12, 02:16:00,VALID,917.688,VALID,0,VALID,97.8207,VALID,-0.0169808,VALID,20.5794,VALID,96,VALID,0,
2001-05-12, 02:17:00,VALID,917.69,VALID,0,VALID,97.9123,VALID,-0.0169808,VALID,20.5921,VALID,76,VALID,0,
2001-05-12, 02:18:00,VALID,917.689,VALID,0,VALID,97.7165,VALID,-0.0339617,VALID,20.5466,VALID,42,VALID,0,
2001-05-12, 02:19:00,VALID,917.708,VALID,0,VALID,97.6999,VALID,0,VALID,20.5533,VALID,106,VALID,0,
2001-05-12, 02:20:00,VALID,917.703,VALID,0.2,VALID,97.8029,VALID,0,VALID,20.5597,VALID,81,VALID,0,
2001-05-12, 02:21:00,VALID,917.718,VALID,0,VALID,97.9072,VALID,-0.0509425,VALID,20.5794,VALID,87,VALID,0,
2001-05-12, 02:22:00,VALID,917.716,VALID,0,VALID,98.0127,VALID,0,VALID,20.5953,VALID,88,VALID,0,
2001-05-12, 02:23:00,VALID,917.709,VALID,0,VALID,98.1017,VALID,0.0169808,VALID,20.6184,VALID,90,VALID,0,
2001-05-12, 02:24:00,VALID,917.695,VALID,0.2,VALID,98.1933,VALID,0,VALID,20.6144,VALID,85,VALID,0,
2001-05-12, 02:25:00,VALID,917.681,VALID,0,VALID,98.1641,VALID,0.0169808,VALID,20.6017,VALID,78,VALID,0,
2001-05-12, 02:26:00,VALID,917.662,VALID,0,VALID,98.1335,VALID,-0.0169808,VALID,20.5662,VALID,93,VALID,0,
2001-05-12, 02:27:00,VALID,917.642,VALID,0,VALID,98.22,VALID,-0.0169808,VALID,20.5759,VALID,99,VALID,0,
2001-05-12, 02:28:00,VALID,917.641,VALID,0.2,VALID,98.2887,VALID,0,VALID,20.5794,VALID,80,VALID,0,
2001-05-12, 02:29:00,VALID,917.639,VALID,0,VALID,98.2467,VALID,0,VALID,20.5401,VALID,84,VALID,0,
2001-05-12, 02:30:00,VALID,917.6,VALID,0,VALID,98.2124,VALID,-0.0169808,VALID,20.5115,VALID,88,VALID,0,
2001-05-12, 02:31:00,VALID,917.579,VALID,0,VALID,98.1628,VALID,-0.0169808,VALID,20.4825,VALID,74,VALID,0,
2001-05-12, 02:32:00,VALID,917.571,VALID,0.2,VALID,98.1285,VALID,0,VALID,20.4626,VALID,91,VALID,0,
2001-05-12, 02:33:00,VALID,917.552,VALID,0,VALID,98.1386,VALID,-0.0849042,VALID,20.4504,VALID,92,VALID,0,
2001-05-12, 02:34:00,VALID,917.55,VALID,0,VALID,98.2327,VALID,-0.0169808,VALID,20.4601,VALID,88,VALID,0,
2001-05-12, 02:35:00,VALID,917.543,VALID,0,VALID,98.2302,VALID,-0.0339617,VALID,20.4437,VALID,92,VALID,0,
2001-05-12, 02:36:00,VALID,917.544,VALID,0.2,VALID,98.1958,VALID,-0.0339617,VALID,20.4281,VALID,90,VALID,0,
2001-05-12, 02:37:00,VALID,917.519,VALID,0,VALID,98.2124,VALID,-0.0169808,VALID,20.4119,VALID,97,VALID,0,
2001-05-12, 02:38:00,VALID,917.536,VALID,0.2,VALID,98.2073,VALID,-0.0169808,VALID,20.3985,VALID,95,VALID,0,
2001-05-12, 02:39:00,VALID,917.519,VALID,0,VALID,98.2098,VALID,-0.0169808,VALID,20.3627,VALID,83,VALID,0,
2001-05-12, 02:40:00,VALID,917.526,VALID,0.2,VALID,98.1742,VALID,-0.0339617,VALID,20.3435,VALID,76,VALID,0,
2001-05-12, 02:41:00,VALID,917.526,VALID,0,VALID,98.2556,VALID,-0.0169808,VALID,20.3435,VALID,94,VALID,0,
2001-05-12, 02:42:00,VALID,917.527,VALID,0.2,VALID,98.323,VALID,-0.0169808,VALID,20.3371,VALID,91,VALID,0,
2001-05-12, 02:43:00,VALID,917.504,VALID,0,VALID,98.3548,VALID,-0.0509425,VALID,20.3309,VALID,78,VALID,0,
2001-05-12, 02:44:00,VALID,917.488,VALID,0.2,VALID,98.3929,VALID,-0.0339617,VALID,20.3182,VALID,71,VALID,0,
2001-05-12, 02:45:00,VALID,917.486,VALID,0,VALID,98.4006,VALID,-0.0169808,VALID,20.2951,VALID,95,VALID,0,
2001-05-12, 02:46:00,VALID,917.468,VALID,0,VALID,98.454,VALID,-0.0509425,VALID,20.2824,VALID,90,VALID,0,
2001-05-12, 02:47:00,VALID,917.435,VALID,0.2,VALID,98.4909,VALID,-0.0509425,VALID,20.273,VALID,79,VALID,0,
2001-05-12, 02:48:00,VALID,917.431,VALID,0,VALID,98.4998,VALID,-0.0509425,VALID,20.234,VALID,77,VALID,0,
2001-05-12, 02:49:00,VALID,917.408,VALID,0.2,VALID,98.5201,VALID,-0.0509425,VALID,20.2278,VALID,98,VALID,0,
2001-05-12, 02:50:00,VALID,917.37,VALID,0,VALID,98.5722,VALID,-0.0339617,VALID,20.2181,VALID,88,VALID,0,
2001-05-12, 02:51:00,VALID,917.343,VALID,0.2,VALID,98.5888,VALID,-0.0509425,VALID,20.1984,VALID,92,VALID,0,
2001-05-12, 02:52:00,VALID,917.303,VALID,0,VALID,98.6396,VALID,-0.0509425,VALID,20.2051,VALID,91,VALID,0,
2001-05-12, 02:53:00,VALID,917.274,VALID,0,VALID,98.6613,VALID,-0.0169808,VALID,20.2054,VALID,86,VALID,0,
2001-05-12, 02:54:00,VALID,917.26,VALID,0,VALID,98.674,VALID,0,VALID,20.2051,VALID,90,VALID,0,
2001-05-12, 02:55:00,VALID,917.24,VALID,0,VALID,98.7134,VALID,0,VALID,20.1979,VALID,94,VALID,0,
2001-05-12, 02:56:00,VALID,917.225,VALID,0,VALID,98.7172,VALID,0,VALID,20.2049,VALID,71,VALID,0,
2001-05-12, 02:57:00,VALID,917.204,VALID,0,VALID,98.7197,VALID,-0.0339617,VALID,20.1858,VALID,83,VALID,0,
2001-05-12, 02:58:00,VALID,917.196,VALID,0.2,VALID,98.7172,VALID,-0.0339617,VALID,20.1728,VALID,90,VALID,0,
2001-05-12, 02:59:00,VALID,917.188,VALID,0,VALID,98.7312,VALID,-0.0339617,VALID,20.1594,VALID,103,VALID,0,
2001-05-12, 03:00:00,VALID,917.177,VALID,0,VALID,98.7782,VALID,-0.0169808,VALID,20.1726,VALID,89,VALID,0,
2001-05-12, 03:01:00,VALID,917.19,VALID,0,VALID,98.7643,VALID,0,VALID,20.1594,VALID,69,VALID,0,
2001-05-12, 03:02:00,VALID,917.182,VALID,0.2,VALID,98.7706,VALID,-0.0169808,VALID,20.1338,VALID,86,VALID,0,
2001-05-12, 03:03:00,VALID,917.205,VALID,0,VALID,98.7795,VALID,-0.0169808,VALID,20.1338,VALID,70,VALID,0,
2001-05-12, 03:04:00,VALID,917.203,VALID,0,VALID,98.7897,VALID,-0.0339617,VALID,20.1104,VALID,81,VALID,0,
2001-05-12, 03:05:00,VALID,917.198,VALID,0,VALID,98.8075,VALID,0,VALID,20.1206,VALID,88,VALID,0,
2001-05-12, 03:06:00,VALID,917.195,VALID,0,VALID,98.8329,VALID,0,VALID,20.107,VALID,93,VALID,0,
2001-05-12, 03:07:00,VALID,917.186,VALID,0.2,VALID,98.8494,VALID,0,VALID,20.1204,VALID,104,VALID,0,
2001-05-12, 03:08:00,VALID,917.181,VALID,0,VALID,98.8558,VALID,-0.0169808,VALID,20.1142,VALID,104,VALID,0,
2001-05-12, 03:09:00,VALID,917.192,VALID,0,VALID,98.8482,VALID,-0.0169808,VALID,20.108,VALID,104,VALID,0,
2001-05-12, 03:10:00,VALID,917.193,VALID,0,VALID,98.8723,VALID,0,VALID,20.1211,VALID,104,VALID,0,
2001-05-12, 03:11:00,VALID,917.194,VALID,0,VALID,98.8914,VALID,-0.0509425,VALID,20.1239,VALID,105,VALID,0,
2001-05-12, 03:12:00,VALID,917.186,VALID,0,VALID,98.9308,VALID,-0.0339617,VALID,20.1535,VALID,108,VALID,0,
2001-05-12, 03:13:00,VALID,917.156,VALID,0.2,VALID,98.927,VALID,-0.0509425,VALID,20.1761,VALID,108,VALID,0,
2001-05-12, 03:14:00,VALID,917.154,VALID,0,VALID,98.9181,VALID,0,VALID,20.1728,VALID,108,VALID,0,
2001-05-12, 03:15:00,VALID,917.139,VALID,0.2,VALID,98.9156,VALID,0,VALID,20.1599,VALID,108,VALID,0,
2001-05-12, 03:16:00,VALID,917.105,VALID,0,VALID,98.9296,VALID,-0.0169808,VALID,20.1763,VALID,108,VALID,0,
2001-05-12, 03:17:00,VALID,917.096,VALID,0,VALID,98.9283,VALID,-0.0339617,VALID,20.1823,VALID,108,VALID,0,
2001-05-12, 03:18:00,VALID,917.085,VALID,0,VALID,98.9003,VALID,-0.0169808,VALID,20.1661,VALID,108,VALID,0,
2001-05-12, 03:19:00,VALID,917.07,VALID,0.2,VALID,98.9067,VALID,0,VALID,20.1532,VALID,113,VALID,0,
2001-05-12, 03:20:00,VALID,917.077,VALID,0,VALID,98.9041,VALID,0,VALID,20.1564,VALID,286,VALID,0,
2001-05-12, 03:21:00,VALID,917.064,VALID,0,VALID,98.9054,VALID,0.0169808,VALID,20.143,VALID,285,VALID,0,
2001-05-12, 03:22:00,VALID,917.053,VALID,0.2,VALID,98.9207,VALID,-0.0169808,VALID,20.1502,VALID,285,VALID,0,
2001-05-12, 03:23:00,VALID,917.05,VALID,0,VALID,98.9219,VALID,0,VALID,20.1535,VALID,281,VALID,0,
2001-05-12, 03:24:00,VALID,917.03,VALID,0.2,VALID,98.9436,VALID,-0.0849042,VALID,20.1572,VALID,251,VALID,0,
2001-05-12, 03:25:00,VALID,917.028,VALID,0,VALID,98.9499,VALID,-0.118866,VALID,20.1716,VALID,230,VALID,0,
2001-05-12, 03:26:00,VALID,917.016,VALID,0,VALID,98.9499,VALID,-0.135847,VALID,20.1813,VALID,243,VALID,0,
2001-05-12, 03:27:00,VALID,917.025,VALID,0.2,VALID,98.9474,VALID,-0.118866,VALID,20.1873,VALID,251,VALID,0,
2001-05-12, 03:28:00,VALID,917.022,VALID,0,VALID,98.9308,VALID,-0.101885,VALID,20.1609,VALID,246,VALID,0,
2001-05-12, 03:29:00,VALID,917.008,VALID,0.2,VALID,98.9664,VALID,-0.118866,VALID,20.1741,VALID,225,VALID,0,
2001-05-12, 03:30:00,VALID,917.024,VALID,0,VALID,98.9715,VALID,-0.101885,VALID,20.1875,VALID,226,VALID,0,
2001-05-12, 03:31:00,VALID,917.035,VALID,0.2,VALID,98.9715,VALID,-0.101885,VALID,20.1773,VALID,226,VALID,0,
2001-05-12, 03:32:00,VALID,917.047,VALID,0,VALID,98.9906,VALID,-0.101885,VALID,20.194,VALID,226,VALID,0,
2001-05-12, 03:33:00,VALID,917.042,VALID,0,VALID,99.0008,VALID,-0.101885,VALID,20.1865,VALID,226,VALID,0,
2001-05-12, 03:34:00,VALID,917.042,VALID,0.2,VALID,98.9703,VALID,-0.101885,VALID,20.1905,VALID,208,VALID,0,
2001-05-12, 03:35:00,VALID,917.042,VALID,0,VALID,98.9563,VALID,-0.101885,VALID,20.1612,VALID,205,VALID,0,
2001-05-12, 03:36:00,VALID,917.053,VALID,0.2,VALID,98.9614,VALID,-0.118866,VALID,20.145,VALID,204,VALID,0,
2001-05-12, 03:37:00,VALID,917.044,VALID,0,VALID,98.9588,VALID,-0.101885,VALID,20.1256,VALID,204,VALID,0,
2001-05-12, 03:38:00,VALID,917.075,VALID,0,VALID,98.9931,VALID,-0.101885,VALID,20.1324,VALID,203,VALID,0,
2001-05-12, 03:39:00,VALID,917.072,VALID,0.2,VALID,99.0249,VALID,-0.0679233,VALID,20.1438,VALID,202,VALID,0,
2001-05-12, 03:40:00,VALID,917.085,VALID,0,VALID,99.0466,VALID,0.0169808,VALID,20.1726,VALID,202,VALID,0,
2001-05-12, 03:41:00,VALID,917.097,VALID,0.2,VALID,99.0516,VALID,-0.0169808,VALID,20.1818,VALID,202,VALID,0,
2001-05-12, 03:42:00,VALID,917.083,VALID,0,VALID,99.0504,VALID,0,VALID,20.2051,VALID,206,VALID,0,
2001-05-12, 03:43:00,VALID,917.108,VALID,0,VALID,99.0453,VALID,-0.0339617,VALID,20.1987,VALID,206,VALID,0,
2001-05-12, 03:44:00,VALID,917.109,VALID,0.2,VALID,99.0389,VALID,-0.0679233,VALID,20.1761,VALID,233,VALID,0,
2001-05-12, 03:45:00,VALID,917.1,VALID,0,VALID,99.0287,VALID,-0.0169808,VALID,20.1731,VALID,250,VALID,0,
2001-05-12, 03:46:00,VALID,917.097,VALID,0,VALID,99.0249,VALID,0,VALID,20.1497,VALID,289,VALID,0,